Location: Centerville
(32.8776°N, 96.6203°W)
Time: 21:35:03
(UTC+00:00)

Delta 128 - Pass Details

Date: 30 October 2021
Orbit: 608 x 1216 km, 28.0° (Epoch: 27 November)

Event Time Altitude Azimuth Distance (km) Brightness Sun altitude
Rises 10:45:17 0° 195° (SSW) 3,988 7.6 -25.2°
Reaches altitude 10° 10:50:32 10° 165° (SSE) 3,113 7.3 -24.1°
Maximum altitude 10:52:59 12° 147° (SSE) 3,012 7.5 -23.6°
Drops below altitude 10° 10:55:27 10° 129° (SE) 3,150 7.9 -23.1°
Sets 11:00:49 0° 100° (E) 4,104 9.3 -21.9°
